GLO3321 SUMU-SBSP

Flight info

Callsign GLO3321
Flight time 1h 53m
Altitude 37000
Route DCT MOLBI UM540 ANISE OGTA2
Aircraft B38M/M-V/N

Departure

Time 2026-04-23 19:39
Airport Carrasco General Cesáreo L. Berisso International Airport (SUMU)

Arrival

Time 2026-04-23 21:33
Airport Congonhas–Deputado Freitas Nobre Airport (SBSP)
Time Latitude Longitude Altitude Speed Heading
2026-04-23 19:15 -34.83586 -56.01718 94 ft 0 kts 143°
2026-04-23 19:32 -34.83582 -56.01722 95 ft 2 kts 142°
2026-04-23 19:32 -34.83567 -56.01738 95 ft 3 kts 136°
2026-04-23 19:32 -34.83553 -56.01755 95 ft 3 kts 129°
2026-04-23 19:33 -34.83541 -56.01775 94 ft 3 kts 120°
2026-04-23 19:33 -34.83532 -56.01797 96 ft 3 kts 105°
2026-04-23 19:33 -34.83534 -56.01833 94 ft 0 kts 54°
2026-04-23 19:34 -34.83535 -56.01834 94 ft 0 kts 54°
2026-04-23 19:36 -34.83532 -56.01829 94 ft 3 kts 54°
2026-04-23 19:36 -34.83489 -56.01766 98 ft 11 kts 35°
2026-04-23 19:36 -34.83425 -56.01783 98 ft 10 kts 319°
2026-04-23 19:36 -34.83353 -56.01852 97 ft 18 kts 324°
2026-04-23 19:37 -34.83275 -56.01830 100 ft 15 kts 55°
2026-04-23 19:37 -34.83192 -56.01685 102 ft 24 kts 55°
2026-04-23 19:37 -34.83093 -56.01516 106 ft 24 kts 51°
2026-04-23 19:37 -34.82991 -56.01355 109 ft 24 kts 55°
2026-04-23 19:38 -34.82914 -56.01222 112 ft 19 kts 54°
2026-04-23 19:38 -34.82808 -56.01139 111 ft 19 kts 359°
2026-04-23 19:38 -34.82712 -56.01230 113 ft 19 kts 266°
2026-04-23 19:38 -34.82758 -56.01313 112 ft 13 kts 233°
2026-04-23 19:39 -34.82900 -56.01542 107 ft 71 kts 233°
2026-04-23 19:39 -34.83363 -56.02299 93 ft 147 kts 233°
2026-04-23 19:39 -34.84052 -56.03448 383 ft 186 kts 233°
2026-04-23 19:39 -34.84845 -56.04787 1234 ft 201 kts 234°
2026-04-23 19:40 -34.85689 -56.06231 1977 ft 221 kts 235°
2026-04-23 19:40 -34.86564 -56.07842 2767 ft 230 kts 240°
2026-04-23 19:40 -34.87038 -56.09695 3698 ft 235 kts 268°
2026-04-23 19:40 -34.86673 -56.11663 4467 ft 249 kts 297°
2026-04-23 19:41 -34.85441 -56.13266 5036 ft 271 kts 327°
2026-04-23 19:41 -34.83660 -56.13991 5737 ft 273 kts 353°
2026-04-23 19:41 -34.81772 -56.13652 6435 ft 281 kts 19°
2026-04-23 19:41 -34.80154 -56.12287 7125 ft 290 kts 46°
2026-04-23 19:42 -34.79084 -56.10180 7899 ft 297 kts 63°
2026-04-23 19:42 -34.78221 -56.07876 8686 ft 302 kts 64°
2026-04-23 19:42 -34.77344 -56.05537 9484 ft 305 kts 64°
2026-04-23 19:42 -34.76459 -56.03204 10267 ft 309 kts 64°
2026-04-23 19:43 -34.75543 -56.00818 10882 ft 317 kts 64°
2026-04-23 19:43 -34.74574 -55.98309 11003 ft 337 kts 64°
2026-04-23 19:43 -34.73549 -55.95662 11040 ft 354 kts 64°
2026-04-23 19:43 -34.72473 -55.92891 11048 ft 371 kts 64°
2026-04-23 19:44 -34.71205 -55.90112 11476 ft 379 kts 51°
2026-04-23 19:44 -34.69371 -55.87800 12141 ft 383 kts 42°
2026-04-23 19:44 -34.67418 -55.85573 12824 ft 388 kts 41°
2026-04-23 19:44 -34.65410 -55.83348 13510 ft 392 kts 41°
2026-04-23 19:45 -34.63370 -55.81121 14153 ft 398 kts 40°
2026-04-23 19:45 -34.61286 -55.78870 14659 ft 405 kts 40°
2026-04-23 19:45 -34.59148 -55.76573 15175 ft 412 kts 40°
2026-04-23 19:45 -34.56988 -55.74256 15711 ft 416 kts 39°
2026-04-23 19:46 -34.54807 -55.71921 16254 ft 420 kts 39°
2026-04-23 19:46 -34.52606 -55.69567 16803 ft 424 kts 39°
2026-04-23 19:46 -34.50413 -55.67223 17352 ft 428 kts 39°
2026-04-23 19:46 -34.48166 -55.64822 17936 ft 432 kts 39°
2026-04-23 19:47 -34.46636 -55.63189 18334 ft 434 kts 38°
2026-04-23 19:47 -34.43614 -55.59967 19024 ft 438 kts 38°
2026-04-23 19:47 -34.41309 -55.57511 19548 ft 441 kts 38°
2026-04-23 19:47 -34.38996 -55.55049 20085 ft 444 kts 37°
2026-04-23 19:48 -34.36666 -55.52569 20621 ft 447 kts 37°
2026-04-23 19:48 -34.34328 -55.50081 21184 ft 448 kts 37°
2026-04-23 19:48 -34.31986 -55.47591 21785 ft 449 kts 36°
2026-04-23 19:48 -34.29633 -55.45089 22394 ft 449 kts 36°
2026-04-23 19:49 -34.27290 -55.42600 23012 ft 449 kts 36°
2026-04-23 19:49 -34.24941 -55.40107 23655 ft 449 kts 35°
2026-04-23 19:49 -34.22623 -55.37646 24201 ft 448 kts 34°
2026-04-23 19:49 -34.20285 -55.35169 24749 ft 447 kts 34°
2026-04-23 19:50 -34.17924 -55.32668 25302 ft 445 kts 33°
2026-04-23 19:50 -34.15630 -55.30242 25870 ft 443 kts 33°
2026-04-23 19:50 -34.13320 -55.27798 26456 ft 440 kts 32°
2026-04-23 19:50 -34.11024 -55.25371 26999 ft 439 kts 31°
2026-04-23 19:51 -34.08707 -55.22927 27180 ft 447 kts 31°
2026-04-23 19:51 -34.06331 -55.20420 27180 ft 460 kts 31°
2026-04-23 19:51 -34.03886 -55.17842 27177 ft 472 kts 32°
2026-04-23 19:51 -34.01389 -55.15211 27278 ft 481 kts 32°
2026-04-23 19:52 -33.99717 -55.13450 27639 ft 479 kts 31°
2026-04-23 19:52 -33.96363 -55.09922 28342 ft 476 kts 31°
2026-04-23 19:52 -33.93873 -55.07305 28876 ft 474 kts 30°
2026-04-23 19:52 -33.91389 -55.04697 29445 ft 471 kts 30°
2026-04-23 19:53 -33.88923 -55.02110 29994 ft 469 kts 29°
2026-04-23 19:53 -33.86470 -54.99538 30500 ft 466 kts 28°
2026-04-23 19:53 -33.84034 -54.96986 30980 ft 463 kts 28°
2026-04-23 19:53 -33.81649 -54.94489 31467 ft 459 kts 28°
2026-04-23 19:54 -33.79249 -54.91978 31955 ft 455 kts 27°
2026-04-23 19:54 -33.76872 -54.89494 32460 ft 450 kts 27°
2026-04-23 19:54 -33.74487 -54.87003 32964 ft 446 kts 27°
2026-04-23 19:54 -33.72171 -54.84589 33208 ft 449 kts 27°
2026-04-23 19:55 -33.69786 -54.82103 33155 ft 458 kts 27°
2026-04-23 19:55 -33.64913 -54.77025 33152 ft 465 kts 27°
2026-04-23 19:56 -33.60026 -54.71945 33159 ft 468 kts 27°
2026-04-23 19:56 -33.55062 -54.66789 33650 ft 470 kts 27°
2026-04-23 19:56 -33.52596 -54.64232 34117 ft 467 kts 27°
2026-04-23 19:57 -33.50150 -54.61697 34536 ft 463 kts 27°
2026-04-23 19:57 -33.47720 -54.59183 34942 ft 458 kts 26°
2026-04-23 19:57 -33.46133 -54.57539 35221 ft 455 kts 26°
2026-04-23 19:57 -33.42956 -54.54253 35785 ft 447 kts 25°
2026-04-23 19:58 -33.40642 -54.51861 36229 ft 440 kts 25°
2026-04-23 19:58 -33.38343 -54.49487 36672 ft 432 kts 24°
2026-04-23 19:58 -33.36093 -54.47165 37078 ft 424 kts 24°
2026-04-23 19:58 -33.33857 -54.44864 37203 ft 424 kts 24°
2026-04-23 19:59 -33.31606 -54.42546 37191 ft 428 kts 24°
2026-04-23 19:59 -33.27047 -54.37856 37165 ft 435 kts 24°
2026-04-23 20:00 -33.22413 -54.33094 37164 ft 443 kts 25°
2026-04-23 20:00 -33.17734 -54.28293 37166 ft 450 kts 25°
2026-04-23 20:01 -33.12930 -54.23372 37162 ft 459 kts 25°
2026-04-23 20:01 -33.08868 -54.19216 37162 ft 466 kts 25°
2026-04-23 20:02 -33.03900 -54.14140 37159 ft 475 kts 26°
2026-04-23 20:02 -32.98821 -54.08959 37155 ft 485 kts 26°
2026-04-23 20:03 -32.93643 -54.03686 37150 ft 495 kts 26°
2026-04-23 20:03 -32.88358 -53.98311 37148 ft 502 kts 27°
2026-04-23 20:04 -32.83047 -53.92920 37154 ft 503 kts 27°
2026-04-23 20:04 -32.77718 -53.87518 37160 ft 504 kts 27°
2026-04-23 20:05 -32.72378 -53.82115 37172 ft 504 kts 27°
2026-04-23 20:05 -32.67031 -53.76713 37163 ft 505 kts 27°
2026-04-23 20:06 -32.61700 -53.71336 37156 ft 506 kts 27°
2026-04-23 20:06 -32.56337 -53.65935 37156 ft 507 kts 27°
2026-04-23 20:07 -32.50921 -53.60488 37156 ft 507 kts 27°
2026-04-23 20:07 -32.45591 -53.55037 37158 ft 512 kts 30°
2026-04-23 20:08 -32.40316 -53.49334 37155 ft 514 kts 30°
2026-04-23 20:08 -32.35044 -53.43625 37155 ft 514 kts 30°
2026-04-23 20:09 -32.29761 -53.37913 37151 ft 514 kts 30°
2026-04-23 20:09 -32.24476 -53.32207 37155 ft 514 kts 31°
2026-04-23 20:10 -32.19190 -53.26511 37153 ft 515 kts 31°
2026-04-23 20:10 -32.13890 -53.20809 37145 ft 515 kts 31°
2026-04-23 20:11 -32.08588 -53.15114 37162 ft 515 kts 31°
2026-04-23 20:11 -32.03286 -53.09427 37154 ft 516 kts 31°
2026-04-23 20:12 -31.97966 -53.03732 37160 ft 517 kts 31°
2026-04-23 20:12 -31.92637 -52.98036 37157 ft 517 kts 31°
2026-04-23 20:13 -31.87323 -52.92366 37154 ft 518 kts 31°
2026-04-23 20:13 -31.81978 -52.86671 37153 ft 519 kts 31°
2026-04-23 20:14 -31.76625 -52.80978 37152 ft 520 kts 31°
2026-04-23 20:14 -31.71251 -52.75272 37154 ft 521 kts 31°
2026-04-23 20:15 -31.65859 -52.69554 37158 ft 521 kts 31°
2026-04-23 20:15 -31.60469 -52.63848 37158 ft 522 kts 31°
2026-04-23 20:16 -31.55070 -52.58141 37157 ft 523 kts 31°
2026-04-23 20:16 -31.49689 -52.52455 37151 ft 523 kts 31°
2026-04-23 20:17 -31.44268 -52.46734 37153 ft 525 kts 31°
2026-04-23 20:17 -31.38838 -52.41012 37147 ft 525 kts 31°
2026-04-23 20:18 -31.33406 -52.35299 37139 ft 526 kts 31°
2026-04-23 20:18 -31.27962 -52.29581 37137 ft 525 kts 31°
2026-04-23 20:19 -31.22551 -52.23907 37138 ft 524 kts 31°
2026-04-23 20:19 -31.17122 -52.18224 37133 ft 524 kts 31°
2026-04-23 20:20 -31.11683 -52.12539 37136 ft 524 kts 31°
2026-04-23 20:20 -31.06262 -52.06882 37137 ft 523 kts 31°
2026-04-23 20:21 -31.00838 -52.01231 37134 ft 523 kts 31°
2026-04-23 20:21 -30.95409 -51.95583 37132 ft 522 kts 31°
2026-04-23 20:22 -30.89989 -51.89955 37134 ft 522 kts 31°
2026-04-23 20:22 -30.84565 -51.84331 37135 ft 522 kts 31°
2026-04-23 20:23 -30.79168 -51.78744 37135 ft 522 kts 31°
2026-04-23 20:23 -30.73748 -51.73140 37132 ft 521 kts 31°
2026-04-23 20:24 -30.68321 -51.67540 37133 ft 522 kts 31°
2026-04-23 20:24 -30.62887 -51.61940 37128 ft 522 kts 31°
2026-04-23 20:25 -30.57450 -51.56346 37137 ft 522 kts 31°
2026-04-23 20:25 -30.52006 -51.50807 37141 ft 520 kts 31°
2026-04-23 20:26 -30.46525 -51.45331 37137 ft 519 kts 31°
2026-04-23 20:26 -30.41048 -51.39865 37129 ft 520 kts 31°
2026-04-23 20:27 -30.35571 -51.34409 37131 ft 519 kts 31°
2026-04-23 20:27 -30.30091 -51.28959 37126 ft 519 kts 31°
2026-04-23 20:28 -30.24646 -51.23552 37118 ft 519 kts 31°
2026-04-23 20:28 -30.19154 -51.18105 37115 ft 519 kts 31°
2026-04-23 20:29 -30.13670 -51.12676 37109 ft 519 kts 31°
2026-04-23 20:29 -30.08175 -51.07244 37100 ft 519 kts 31°
2026-04-23 20:30 -30.02681 -51.01820 37103 ft 519 kts 31°
2026-04-23 20:30 -29.94447 -50.93707 37125 ft 519 kts 31°
2026-04-23 20:31 -29.88988 -50.88341 37129 ft 519 kts 30°
2026-04-23 20:31 -29.83303 -50.83287 37127 ft 514 kts 27°
2026-04-23 20:32 -29.77601 -50.78314 37098 ft 514 kts 27°
2026-04-23 20:32 -29.71922 -50.73373 37141 ft 515 kts 27°
2026-04-23 20:33 -29.66219 -50.68416 37127 ft 513 kts 27°
2026-04-23 20:33 -29.60516 -50.63467 37131 ft 514 kts 28°
2026-04-23 20:34 -29.54800 -50.58514 37129 ft 514 kts 28°
2026-04-23 20:34 -29.49081 -50.53579 37126 ft 512 kts 28°
2026-04-23 20:35 -29.43371 -50.48668 37143 ft 514 kts 28°
2026-04-23 20:35 -29.37682 -50.43782 37150 ft 514 kts 28°
2026-04-23 20:36 -29.31954 -50.38868 37146 ft 514 kts 28°
2026-04-23 20:36 -29.26223 -50.33961 37150 ft 514 kts 28°
2026-04-23 20:37 -29.20490 -50.29058 37157 ft 514 kts 28°
2026-04-23 20:37 -29.14760 -50.24164 37147 ft 514 kts 28°
2026-04-23 20:38 -29.09019 -50.19268 37157 ft 514 kts 28°
2026-04-23 20:38 -29.03269 -50.14372 37162 ft 515 kts 28°
2026-04-23 20:39 -28.97557 -50.09515 37162 ft 515 kts 28°
2026-04-23 20:39 -28.91805 -50.04630 37158 ft 515 kts 28°
2026-04-23 20:40 -28.86037 -49.99739 37161 ft 515 kts 28°
2026-04-23 20:40 -28.80292 -49.94870 37052 ft 513 kts 28°
2026-04-23 20:41 -28.77440 -49.92459 37210 ft 509 kts 28°
2026-04-23 20:41 -28.74579 -49.90044 37191 ft 515 kts 28°
2026-04-23 20:41 -28.68828 -49.85187 37130 ft 513 kts 28°
2026-04-23 20:42 -28.63077 -49.80335 37164 ft 514 kts 28°
2026-04-23 20:42 -28.57387 -49.75540 37171 ft 513 kts 28°
2026-04-23 20:43 -28.51647 -49.70710 37169 ft 514 kts 29°
2026-04-23 20:43 -28.45895 -49.65877 37165 ft 514 kts 29°
2026-04-23 20:44 -28.40142 -49.61052 37167 ft 513 kts 29°
2026-04-23 20:44 -28.34390 -49.56234 37167 ft 513 kts 29°
2026-04-23 20:45 -28.28638 -49.51423 37114 ft 514 kts 29°
2026-04-23 20:45 -28.22875 -49.46612 37210 ft 515 kts 29°
2026-04-23 20:46 -28.18086 -49.42614 37108 ft 511 kts 29°
2026-04-23 20:46 -28.11421 -49.37063 37161 ft 513 kts 29°
2026-04-23 20:47 -28.06660 -49.33058 37160 ft 513 kts 30°
2026-04-23 20:47 -28.00953 -49.28201 37146 ft 513 kts 30°
2026-04-23 20:48 -27.95241 -49.23346 37158 ft 513 kts 30°
2026-04-23 20:48 -27.89552 -49.18517 37153 ft 511 kts 30°
2026-04-23 20:49 -27.83776 -49.13819 37140 ft 509 kts 28°
2026-04-23 20:49 -27.77999 -49.09178 37137 ft 510 kts 28°
2026-04-23 20:50 -27.72257 -49.04571 37161 ft 510 kts 28°
2026-04-23 20:50 -27.66503 -48.99881 37144 ft 509 kts 29°
2026-04-23 20:51 -27.60770 -48.95170 37136 ft 509 kts 29°
2026-04-23 20:51 -27.55048 -48.90463 37127 ft 509 kts 30°
2026-04-23 20:52 -27.49329 -48.85765 37133 ft 509 kts 30°
2026-04-23 20:52 -27.43603 -48.81066 37106 ft 509 kts 30°
2026-04-23 20:53 -27.37911 -48.76400 37128 ft 509 kts 30°
2026-04-23 20:53 -27.32182 -48.71712 37103 ft 508 kts 30°
2026-04-23 20:54 -27.26460 -48.67027 37122 ft 509 kts 30°
2026-04-23 20:54 -27.20794 -48.62267 37117 ft 508 kts 31°
2026-04-23 20:55 -27.15099 -48.57586 37113 ft 507 kts 30°
2026-04-23 20:55 -27.09370 -48.52946 37114 ft 507 kts 30°
2026-04-23 20:56 -27.03680 -48.48349 37108 ft 507 kts 30°
2026-04-23 20:56 -26.97947 -48.43725 37108 ft 507 kts 30°
2026-04-23 20:57 -26.92222 -48.39112 37109 ft 507 kts 30°
2026-04-23 20:57 -26.86485 -48.34496 37111 ft 507 kts 30°
2026-04-23 20:58 -26.80748 -48.29887 37118 ft 507 kts 30°
2026-04-23 20:58 -26.75013 -48.25284 37118 ft 507 kts 30°
2026-04-23 20:59 -26.69269 -48.20667 37117 ft 507 kts 30°
2026-04-23 20:59 -26.63577 -48.16086 37120 ft 508 kts 30°
2026-04-23 21:00 -26.57842 -48.11475 37122 ft 508 kts 30°
2026-04-23 21:00 -26.52106 -48.06868 37121 ft 507 kts 30°
2026-04-23 21:01 -26.46374 -48.02271 37119 ft 507 kts 30°
2026-04-23 21:01 -26.40646 -47.97683 37120 ft 507 kts 30°
2026-04-23 21:02 -26.34917 -47.93099 37121 ft 507 kts 31°
2026-04-23 21:02 -26.29179 -47.88513 37123 ft 507 kts 31°
2026-04-23 21:03 -26.23445 -47.83936 37121 ft 506 kts 31°
2026-04-23 21:03 -26.17757 -47.79402 37114 ft 506 kts 31°
2026-04-23 21:04 -26.12033 -47.74845 37118 ft 506 kts 31°
2026-04-23 21:04 -26.06307 -47.70292 37122 ft 505 kts 31°
2026-04-23 21:05 -26.00580 -47.65743 37122 ft 505 kts 31°
2026-04-23 21:05 -25.94873 -47.61217 37121 ft 504 kts 31°
2026-04-23 21:06 -25.89162 -47.56693 37118 ft 504 kts 31°
2026-04-23 21:06 -25.83480 -47.52197 37117 ft 504 kts 31°
2026-04-23 21:07 -25.77768 -47.47683 37116 ft 503 kts 31°
2026-04-23 21:07 -25.72057 -47.43175 37115 ft 503 kts 31°
2026-04-23 21:08 -25.66345 -47.38672 37113 ft 503 kts 31°
2026-04-23 21:08 -25.63494 -47.36426 36850 ft 503 kts 31°
2026-04-23 21:08 -25.60649 -47.34187 36435 ft 501 kts 31°
2026-04-23 21:09 -25.57806 -47.31950 36039 ft 500 kts 31°
2026-04-23 21:09 -25.55004 -47.29747 35648 ft 500 kts 31°
2026-04-23 21:09 -25.52165 -47.27516 35257 ft 501 kts 31°
2026-04-23 21:09 -25.49319 -47.25281 34875 ft 501 kts 31°
2026-04-23 21:10 -25.46470 -47.23045 34497 ft 502 kts 31°
2026-04-23 21:10 -25.43614 -47.20804 34125 ft 503 kts 31°
2026-04-23 21:10 -25.40757 -47.18565 33704 ft 504 kts 31°
2026-04-23 21:10 -25.37900 -47.16327 33288 ft 504 kts 31°
2026-04-23 21:11 -25.35035 -47.14084 32875 ft 504 kts 31°
2026-04-23 21:11 -25.32168 -47.11840 32481 ft 505 kts 31°
2026-04-23 21:11 -25.29301 -47.09598 32085 ft 505 kts 31°
2026-04-23 21:11 -25.26434 -47.07357 31697 ft 505 kts 31°
2026-04-23 21:12 -25.23556 -47.05108 31318 ft 506 kts 30°
2026-04-23 21:12 -25.20678 -47.02861 31126 ft 506 kts 30°
2026-04-23 21:12 -25.14909 -46.98369 30810 ft 507 kts 28°
2026-04-23 21:13 -25.11962 -46.96367 30415 ft 503 kts 25°
2026-04-23 21:13 -25.08952 -46.94385 30007 ft 503 kts 25°
2026-04-23 21:13 -25.05941 -46.92405 29548 ft 504 kts 26°
2026-04-23 21:13 -25.02918 -46.90422 29110 ft 504 kts 26°
2026-04-23 21:14 -24.99905 -46.88446 28680 ft 504 kts 26°
2026-04-23 21:14 -24.96883 -46.86467 28243 ft 505 kts 26°
2026-04-23 21:14 -24.93868 -46.84492 27814 ft 505 kts 26°
2026-04-23 21:14 -24.90839 -46.82510 27365 ft 505 kts 26°
2026-04-23 21:15 -24.87824 -46.80538 26919 ft 505 kts 27°
2026-04-23 21:15 -24.84798 -46.78560 26492 ft 506 kts 27°
2026-04-23 21:15 -24.81766 -46.76579 26067 ft 506 kts 27°
2026-04-23 21:15 -24.78733 -46.74598 25652 ft 506 kts 27°
2026-04-23 21:16 -24.75713 -46.72627 25253 ft 503 kts 27°
2026-04-23 21:16 -24.72717 -46.70673 24853 ft 499 kts 27°
2026-04-23 21:16 -24.69734 -46.68729 24460 ft 496 kts 27°
2026-04-23 21:16 -24.66777 -46.66802 24077 ft 492 kts 28°
2026-04-23 21:17 -24.63843 -46.64892 23697 ft 489 kts 28°
2026-04-23 21:17 -24.60830 -46.63224 23262 ft 480 kts 16°
2026-04-23 21:17 -24.57645 -46.62506 23106 ft 471 kts
2026-04-23 21:17 -24.54376 -46.62516 22746 ft 468 kts 356°
2026-04-23 21:18 -24.51147 -46.62535 22250 ft 460 kts 357°
2026-04-23 21:18 -24.47966 -46.62544 21748 ft 452 kts 358°
2026-04-23 21:18 -24.44844 -46.62551 21267 ft 445 kts 358°
2026-04-23 21:18 -24.41779 -46.62556 20789 ft 438 kts 358°
2026-04-23 21:19 -24.38747 -46.62560 20333 ft 432 kts 358°
2026-04-23 21:19 -24.35788 -46.62563 20132 ft 419 kts 359°
2026-04-23 21:19 -24.32888 -46.62565 19741 ft 413 kts 359°
2026-04-23 21:19 -24.30031 -46.62567 19327 ft 409 kts 359°
2026-04-23 21:20 -24.27202 -46.62569 18924 ft 405 kts 359°
2026-04-23 21:20 -24.24401 -46.62570 18506 ft 401 kts 360°
2026-04-23 21:20 -24.21619 -46.62572 18069 ft 397 kts
2026-04-23 21:20 -24.18865 -46.62574 17609 ft 394 kts
2026-04-23 21:21 -24.16167 -46.62576 17162 ft 391 kts
2026-04-23 21:21 -24.13456 -46.62578 16722 ft 388 kts
2026-04-23 21:21 -24.10770 -46.62580 16286 ft 385 kts
2026-04-23 21:21 -24.08102 -46.62582 15860 ft 382 kts
2026-04-23 21:22 -24.05451 -46.62583 15427 ft 379 kts
2026-04-23 21:22 -24.02824 -46.62585 15020 ft 376 kts
2026-04-23 21:22 -24.00211 -46.62587 14604 ft 374 kts
2026-04-23 21:22 -23.97621 -46.62589 14199 ft 371 kts
2026-04-23 21:23 -23.95033 -46.62590 13719 ft 370 kts
2026-04-23 21:23 -23.92454 -46.62592 13162 ft 371 kts
2026-04-23 21:23 -23.89870 -46.62594 12578 ft 372 kts
2026-04-23 21:23 -23.87270 -46.62602 11998 ft 374 kts 360°
2026-04-23 21:24 -23.84717 -46.63145 11409 ft 378 kts 340°
2026-04-23 21:24 -23.82439 -46.64590 10851 ft 381 kts 325°
2026-04-23 21:24 -23.80256 -46.66235 10298 ft 381 kts 328°
2026-04-23 21:24 -23.78041 -46.67828 9705 ft 381 kts 328°
2026-04-23 21:25 -23.75825 -46.69398 9097 ft 381 kts 328°
2026-04-23 21:25 -23.73593 -46.70961 8504 ft 380 kts 329°
2026-04-23 21:25 -23.71383 -46.72502 7927 ft 370 kts 329°
2026-04-23 21:25 -23.69300 -46.73948 7432 ft 346 kts 329°
2026-04-23 21:26 -23.67324 -46.75319 6920 ft 319 kts 328°
2026-04-23 21:26 -23.65537 -46.76557 6381 ft 299 kts 328°
2026-04-23 21:26 -23.63825 -46.77743 5816 ft 285 kts 329°
2026-04-23 21:26 -23.62191 -46.78874 5378 ft 269 kts 329°
2026-04-23 21:27 -23.60689 -46.79919 5305 ft 244 kts 330°
2026-04-23 21:27 -23.59311 -46.80872 5159 ft 226 kts 330°
2026-04-23 21:27 -23.58035 -46.81746 4982 ft 207 kts 333°
2026-04-23 21:27 -23.56730 -46.82099 4755 ft 183 kts 10°
2026-04-23 21:28 -23.55679 -46.81546 4519 ft 165 kts 52°
2026-04-23 21:28 -23.55077 -46.80486 4417 ft 166 kts 62°
2026-04-23 21:28 -23.54475 -46.79406 4343 ft 166 kts 61°
2026-04-23 21:28 -23.53869 -46.78337 4286 ft 165 kts 60°
2026-04-23 21:29 -23.53259 -46.77276 4191 ft 165 kts 60°
2026-04-23 21:29 -23.52647 -46.76213 4174 ft 166 kts 60°
2026-04-23 21:29 -23.52071 -46.75126 4122 ft 165 kts 75°
2026-04-23 21:29 -23.52099 -46.73929 4082 ft 159 kts 114°
2026-04-23 21:30 -23.52732 -46.72939 4133 ft 161 kts 131°
2026-04-23 21:30 -23.53545 -46.72093 4145 ft 162 kts 139°
2026-04-23 21:30 -23.54446 -46.71358 4207 ft 159 kts 143°
2026-04-23 21:30 -23.55321 -46.70722 4085 ft 145 kts 143°
2026-04-23 21:31 -23.56156 -46.70138 3938 ft 141 kts 145°
2026-04-23 21:31 -23.56981 -46.69566 3807 ft 140 kts 146°
2026-04-23 21:31 -23.57807 -46.68996 3625 ft 141 kts 146°
2026-04-23 21:31 -23.58634 -46.68426 3441 ft 140 kts 147°
2026-04-23 21:32 -23.59445 -46.67867 3245 ft 139 kts 148°
2026-04-23 21:32 -23.60276 -46.67293 3060 ft 140 kts 147°
2026-04-23 21:32 -23.61083 -46.66731 2855 ft 140 kts 149°
2026-04-23 21:32 -23.61899 -46.66174 2672 ft 137 kts 148°
2026-04-23 21:33 -23.62650 -46.65656 2609 ft 107 kts 147°
2026-04-23 21:33 -23.63078 -46.65363 2616 ft 43 kts 147°
2026-04-23 21:33 -23.63294 -46.65218 2620 ft 28 kts 158°
2026-04-23 21:33 -23.63396 -46.65210 2616 ft 15 kts 216°
2026-04-23 21:34 -23.63360 -46.65309 2606 ft 19 kts 331°
2026-04-23 21:34 -23.63227 -46.65400 2606 ft 27 kts 328°
2026-04-23 21:34 -23.63079 -46.65498 2605 ft 15 kts 332°
2026-04-23 21:34 -23.62962 -46.65549 2606 ft 22 kts 329°
2026-04-23 21:35 -23.62742 -46.65694 2605 ft 28 kts 328°
2026-04-23 21:35 -23.62675 -46.65739 2605 ft 11 kts 327°
2026-04-23 21:35 -23.62638 -46.65764 2605 ft 1 kts 328°
2026-04-23 21:35 -23.62621 -46.65776 2605 ft 3 kts 329°
2026-04-23 21:36 -23.62620 -46.65777 2605 ft 0 kts 329°
2026-04-23 21:36 -23.62619 -46.65777 2605 ft 1 kts 329°
2026-04-23 21:36 -23.62594 -46.65799 2605 ft 8 kts 299°
2026-04-23 21:37 -23.62597 -46.65840 2604 ft 3 kts 229°
2026-04-23 21:37 -23.62615 -46.65858 2603 ft 2 kts 223°
2026-04-23 21:37 -23.62627 -46.65873 2603 ft 1 kts 238°
2026-04-23 21:37 -23.62631 -46.65881 2603 ft 1 kts 239°
2026-04-23 21:38 -23.62632 -46.65883 2603 ft 0 kts 239°